This is the latest recevied weather packets stored in our database for station/object XE2VP-WX. If no packets are shown the sender has not sent any weather packets the latest 10 day(s).
| Time | Temp. | Humidity | Pressure | Rain* | Wind** | Luminosity | Snow |
|---|---|---|---|---|---|---|---|
| 1778097707 | 37.22° C | 12% | 938.5 hPa | 0 mm | - | 975 W/m² | - |
| 1778097647 | 37.22° C | 12% | 938.5 hPa | 0 mm | - | 977 W/m² | - |
| 1778097586 | 37.22° C | 15% | 938.6 hPa | 0 mm | - | 979 W/m² | - |
| 1778097527 | 37.22° C | 15% | 938.6 hPa | 0 mm | - | 981 W/m² | - |
| 1778097467 | 37.22° C | 16% | 938.7 hPa | 0 mm | - | 983 W/m² | - |
| 1778097407 | 37.22° C | 16% | 938.7 hPa | 0 mm | - | 983 W/m² | - |
| 1778097347 | 37.22° C | 14% | 938.7 hPa | 0 mm | - | 986 W/m² | - |
| 1778097287 | 37.22° C | 13% | 938.6 hPa | 0 mm | - | 989 W/m² | - |
| 1778097227 | 37.22° C | 12% | 938.6 hPa | 0 mm | - | 990 W/m² | - |
| 1778097167 | 37.22° C | 11% | 938.6 hPa | 0 mm | - | 992 W/m² | - |
| 1778097107 | 37.22° C | 12% | 938.6 hPa | 0 mm | - | 995 W/m² | - |
| 1778097047 | 37.22° C | 12% | 938.6 hPa | 0 mm | - | 997 W/m² | - |
| 1778096987 | 37.22° C | 11% | 938.7 hPa | 0 mm | - | 999 W/m² | - |
| 1778096928 | 37.22° C | 10% | 938.6 hPa | 0 mm | - | 1002 W/m² | - |
| 1778096867 | 36.67° C | 11% | 938.7 hPa | 0 mm | - | 1005 W/m² | - |
| 1778096808 | 36.67° C | 12% | 938.7 hPa | 0 mm | - | 995 W/m² | - |
| 1778096747 | 36.67° C | 15% | 938.8 hPa | 0 mm | - | 974 W/m² | - |
| 1778096683 | 36.67° C | 16% | 938.8 hPa | 0 mm | - | 959 W/m² | - |
| 1778096622 | 36.67° C | 16% | 938.8 hPa | 0 mm | - | 953 W/m² | - |
| 1778096563 | 36.67° C | 16% | 938.8 hPa | 0 mm | - | 954 W/m² | - |
| 1778096501 | 36.67° C | 18% | 938.9 hPa | 0 mm | - | 957 W/m² | - |
| 1778096442 | 36.67° C | 19% | 938.9 hPa | 0 mm | - | 968 W/m² | - |
| 1778096381 | 36.67° C | 20% | 939 hPa | 0 mm | - | 985 W/m² | - |
| 1778096321 | 36.67° C | 21% | 939 hPa | 0 mm | - | 1009 W/m² | - |
| 1778096261 | 36.67° C | 21% | 939 hPa | 0 mm | - | 1022 W/m² | - |
* Rain latest hour (hover to see other rain measurements)
** Current wind speed in m/s (hover to see current wind gust speed)